Regional Weather Roundup
Issued by NWS Newport/Morehead, NC

Current Version | Previous Version | Graphics & Text | Print | Product List | Glossary On
Versions: 1 2 3 4 5 6 7 8 9 10 11 12 13 14 15 16 17 18 19 20 21 22 23 24 25 26 27 28 29 30 31 32 33 34 35 36 37 38 39 40 41 42 43 44 45 46 47 48 49 50
000 ASUS42 KMHX 300622 RWRMHX WEATHER ROUNDUP FOR EASTERN NORTH CAROLINA NATIONAL WEATHER SERVICE NEWPORT/MOREHEAD CITY NC 200 AM EDT TUE SEP 30 2014 NOTE: "FAIR" INDICATES FEW OR NO CLOUDS BELOW 12,000 FEET WITH NO SIGNIFICANT WEATHER AND/OR OBSTRUCTIONS TO VISIBILITY NCZ015>017-031-032-045>047-102-103-300700- NORTH COAST CITY SKY/WX TMP DP RH WIND PRES REMARKS EDENTON CLOUDY 64 62 96 CALM 29.93F ELIZABETH CITY LGT RAIN 65 62 90 NW3 29.93F KITTY HAWK DRIZZLE 68 67 94 CALM 29.92S MANTEO DRIZZLE 68 67 95 N5 29.93S $$ NCZ045>047-081-094-103-104-300700- CENTRAL COAST CITY SKY/WX TMP DP RH WIND PRES REMARKS FRISCO LGT RAIN 67 67 100 VRB6 29.91S SWANQUARTER N/A 68 N/A N/A N1 29.88S $$ NCZ095-097-098-100-101-300700- SOUTHERN COAST CITY SKY/WX TMP DP RH WIND PRES REMARKS BEAUFORT CLOUDY 68 65 90 N8 29.91F CEDAR ISLAND N/A 68 N/A N/A NW10G18 29.94S JACKSONVILLE CLOUDY 66 63 90 NE5 29.92F NEWPORT NOT AVBL PINEY ISLAND LGT RAIN 70 60 70 NE5 29.92S WILMINGTON CLOUDY 66 65 96 NE6 29.91F FOG $$ NCZ011>013-027>030-043-044-078>080-089-090>093-098-300700- COASTAL PLAIN CITY SKY/WX TMP DP RH WIND PRES REMARKS AHOSKIE PTCLDY 61 60 98 CALM 29.94F FOG CLINTON CLEAR 61 61 100 CALM 29.93F FOG ELIZABETHTOWN CLEAR 62 62 100 CALM 29.93S FOG GOLDSBORO PTCLDY 63 62 98 CALM 29.91F GREENVILLE MOCLDY 64 63 94 N3 29.95F HAVELOCK CLOUDY 68 65 90 N12 29.93S KENANSVILLE PTCLDY 63 61 94 CALM 29.94S KINSTON MOCLDY 64 63 97 CALM 29.93F FOG NEW BERN LGT RAIN 67 63 87 N5 29.94S RICHLANDS MOCLDY 64 61 88 CALM 29.93S ROANOKE RAPIDS NOT AVBL ROCKY MOUNT FOG 62 61 96 CALM 29.95S VSB 1/2 WASHINGTON CLOUDY 64 62 94 N5 29.93F WHITEVILLE CLEAR 62 61 96 CALM 29.92F FOG $$ AMZ130-135-150-152-154-156-158-170-250-252-270-ANZ085-086-088-633-658-670-300700- MARINE OBSERVATIONS STATION/POSITION TIME TEMP WIND PRES WAVE SWELL AIR SEA DIR/SP/G HT/PER HT/PER (UTC) (F) (DEG/KT/KT) (MB) (FT/S) (FT/S) CHESAPEAKE LIGHT 0600 69 360/ 9/ 10 1014.0 BUOY 44014 0600 71 71 350/ 10/ 12 1012.7 2/ 8 2/ 8 DUCK 0600 69 72 330/ 7/ 8 1012.7 2E DUCK 0600 N/A 2/ 8 OREGON INLET 0600 69 73 320/ 7/ 9 1013.0 BUOY 44095 0600 73 N/A 3/ 8 20E OREGON INLET NOT AVBL HATTERAS CG 0600 70 75 10/ 12/ 14 1013.0 DIAMOND BUOY 0600 70 320/ 17/ 21 1011.9 3/ 7 2/ 7 CAPE LOOKOUT 0600 69 360/ 10/ 11 1012.6 BEAUFORT LAB 0600 69 75 10/ 9/ 12 1012.4 30 SE NEW RIVER 0600 72 80 20/ 16/ 19 1011.8 3/ 4 2/ 8 5 SE WRIGHTSVILL 0600 66 76 360/ 14/ 16 N/A BUOY 41002 0456 79 81 220/ 6/ 8 1012.1 3/ 8 3/ 8 BUOY 41004 0600 76 81 40/ 16/ 19 1010.1 5/ 6 2/ 8 $$

USA.gov is the U.S. government's official web portal to all federal, state and local government web resources and services.